STARLINK-37248, 68527

Orbit data source: Space-Track

STARLINK-37248, 68527 is a payload satellite owned by SpaceX/Seattle (US) in LEO that was launched on Mon, 30 Mar 2026 UTC via an FALCON 9 launch vehicle from the Air Force Eastern Test Range (AFETR). Payload-class satellites include a variety of spacecraft equipped with specific instruments for various scientific and technological missions. These include communications satellites like Starlink; space stations such as the ISS; scientific satellites like the Hubble; Earth observation satellites from companies like Planet Labs, Umbra, and HawkEye 360; GPS; miniature CubeSats for education and research; and military/defense satellites.

Loading next visibility...
Identifier
68527, 2026-068V
Orbit
LEO
Country
Flag of USUS
Related business
Manufacturer
SpaceX/Seattle
Mission
Operational spacecraft
Bus & Motor
STARLINK V2MO, Unknown motor
Mass
575 kg wet, ~530 kg dry
Launch date (UTC)
2026-03-30 (3 months ago)
Launch vehicle
FALCON 9
Launch site
Air Force Eastern Test Range (AFETR)
Object type
Payload
Rocket body
Debris
Shape & HBR
Unknown shape, 2.8 m
Radar Cross Section
Large (>1 m²)

Expand to show TLE details & history
Last TLE update: 1 day ago

TLE from 1 day ago
0 STARLINK-37248
1 68527U 26068V   26170.85071090  .00025613  00000-0  76639-3 0  9997
2 68527  53.1580  10.6044 0001072  93.4775 266.6350 15.34408661 12641
Epoch: 2026-06-19T20:25Z
TLE epoch observation values (Epoch: 2026-06-19T20:25:01.421Z)
Latitude
-0.00005°
Longitude
156.27468°
Altitude
463.622 km
Speed
7.636 km/s
True Right ascension
00h 42m 25s
True Declination
0° 00' 00"
Sunlit
Object was in daylight at epoch
Visualization orbit readout
Latitude
Unknown
Longitude
Unknown
Altitude
Unknown
Speed
Unknown
Apparent Right ascension
Unknown
Apparent Declination
Unknown
Sunlit
N/A
Visualization observer readout
Local Sidereal Time
07:23:47
Azimuth
Unknown
Elevation
Unknown
Doppler factor
Unknown
Orbital elements
Apogee altitude
463.668 km
Perigee altitude
462.201 km
Semi-major axis
6,841.072 km
Eccentricity
0.00011
Inclination
53.158°
RAAN
10.6044°
Arg. of periapsis
93.4775°
True anomaly
266.62274°
Mean anomaly
266.635°
Eccentric anomaly
266.62887°
Mean motion
3.83581 °/min
Orbital period
93.85 mins
BSTAR
0.00076639
Loading maneuver chart data...
Computing Atmospheric mass density...
Loading historical data...
Loading historical data...
Loading historical data...
Loading historical data...
Loading historical data...
Loading historical data...
Loading historical data...

Documentation

Showing up to 5 results
|